AirNav   Everest Fuels
 
 492 users online  

39P Strom Field Airport
Morton, Washington, USA

GOING TO MORTON?


FAA INFORMATION EFFECTIVE 26 JANUARY 2023

Location

FAA Identifier: 39P
Lat/Long: 46-33-01.2990N 122-15-59.8530W
46-33.021650N 122-15.997550W
46.5503608,-122.2666258
(estimated)
Elevation: 941 ft. / 287 m (estimated)
Variation: 20E (1985)
Time zone: UTC -8 (UTC -7 during Daylight Saving Time)
Zip code: 98356

Airport Operations

Airport use: Open to the public
Activation date: 08/1964
Control tower: no
ARTCC: SEATTLE CENTER
FSS: SEATTLE FLIGHT SERVICE STATION
NOTAMs facility: SEA (NOTAM-D service available)
Attendance: UNATNDD
Wind indicator: lighted
Segmented circle: no
Lights: ACTVT MIRL RY 07/25 - CTAF.
Beacon: white-green (lighted land airport)
ACTVT ROTG BCN - CTAF.

Airport Communications

CTAF: 122.9

Nearby radio navigation aids

VOR radial/distance  VOR name  Freq  Var
OLMr115/36.3OLYMPIA VORTAC113.4019E

Airport Services

Parking: tiedowns
Airframe service: NONE
Powerplant service: NONE

Runway Information

Runway 7/25

Dimensions: 1810 x 40 ft. / 552 x 12 m
Surface: asphalt/L
WDSPR RAVELLING AND ALLIGATOR CRACKING.
Runway edge lights: medium intensity
Runway edge markings: MARKINGS FADED.
RUNWAY 7  RUNWAY 25
Latitude: 46-33.022283N46-33.021000N
Longitude: 122-16.213367W122-15.781733W
Traffic pattern: leftleft
Runway heading: 070 magnetic, 090 true250 magnetic, 270 true
Displaced threshold: 200 ft.no
Markings: basic, in poor conditionbasic, in poor condition
Obstructions: 50 ft. pline, 324 ft. from runway, 2:1 slope to clear
+3 FT FENCE AT 35 FT FM THR AND 32 FT R; GUARD RAIL AND ROAD 98 FT FM THR; 15 FT SIGN, 18 FT R, 65 FT FM THR; TREE, 51 FT HIGH, 2 FT R, 120 FT FM THR, 10 FT SIGN 84 FT L, 30 FT FM THR; FENCE 102 FT L, 15 FT FM THR; ROAD 120 FT L.
41 ft. trees, 1318 ft. from runway, 40 ft. both sides of centerline, 27:1 slope to clear
RWY 25 +2 FT ROAD AND GUARD RAIL AT 15 FT FM THR; TREE, 15 FT HIGH, 49 FT R, 74 FT FM THR; POLE, 4 FT HIGH, 79 FT R, 8 FT FM THR.

Airport Ownership and Management from official FAA records

Ownership: Publicly-owned
Owner: CITY OF MORTON
PO BOX 1089
MORTON, WA 98356
Phone 360-496-6881
Manager: ANDERS PULLMAN
PO BOX 1089, PO BOX 1089
MORTON, WA 98356
Phone (360) 496-5210
PUB. WKS. SUP.

Airport Operational Statistics

Aircraft based on the field: 6
Single engine airplanes: 4
Ultralights: 2
    
Aircraft operations: avg 22/day *
82% transient general aviation
18% local general aviation
<1% military
* for 12-month period ending 31 December 2020

Additional Remarks

TREES NEAR RWY.
TREES, STREAM, AND BRUSH IN PRIM SFC.
DEER AND ELK ON & INVOF RWY.
DITCH PARL RWY ON EASTSIDE.
FOR CD CTC SEATTLE ARTCC AT 253-351-3694.

Instrument Procedures

There are no published instrument procedures at 39P.

Some nearby airports with instrument procedures:

KTDO - Ed Carlson Memorial Field - South Lewis County Airport (23 nm W)
KCLS - Chehalis-Centralia Airport (30 nm W)
KPLU - Pierce County Airport - Thun Field (33 nm N)
KGRF - Gray Army Airfield (Joint Base Lewis-McChord) (34 nm N)
KOLM - Olympia Regional Airport (36 nm NW)
 
Loc | Ops | Rwys | IFR | FBO | Links
Com | Nav | Svcs | Stats | Notes
Area around 39P (Strom Field Airport)
 
Road maps at: MapQuest Bing Google
 
Aerial photo
WARNING: Photo may not be current or correct
Aerial photo of 39P (Strom Field Airport)
Photo taken 01-Sep-2012
looking west.

Do you have a better or more recent aerial photo of Strom Field Airport that you would like to share? If so, please send us your photo.

 
Sectional chart

 
Airport distance calculator
Flying to Strom Field Airport? Find the distance to fly.

From to 39P

Sunrise and sunset
Times for 26-Jan-2023
 Local
(UTC-8)
 Zulu
(UTC)
Morning civil twilight07:0815:08
Sunrise07:4115:41
Sunset17:0301:03
Evening civil twilight17:3601:36

Current date and time
Zulu (UTC)  27-Jan-2023 07:36:03
Local (UTC-8)  26-Jan-2023 23:36:03
 
METAR
KCLS 
30nm W 
270715Z AUTO 20004KT 8SM OVC011 06/06 A3042 RMK AO2
KGRF 
33nm N 
270655Z AUTO 16007KT 10SM OVC005 06/05 A3036 RMK AO2 SLP287 T00600050 $
KTCM 
35nm N 
270655Z AUTO 20009KT 10SM OVC006 06/06 A3037 RMK AO2 RAB31E41 CIG 004 RWY34 SLP290 P0001 T00610061 $
KOLM 
36nm NW 
270716Z AUTO 21008KT 10SM -RA FEW004 BKN026 OVC035 07/07 A3039 RMK AO2 RAB13 P0000 T00670067
KKLS 
37nm SW 
270656Z AUTO 15008KT 10SM BKN005 BKN010 OVC014 06/05 A3048 RMK AO2 SLP324 P0001 T00610050 $
TAF
KGRF 
33nm N 
270500Z 2705/2811 15009KT 6000 -DZ BR OVC003 620409 QNH3037INS BECMG 2708/2709 22010G18KT 4800 -RA SCT003 OVC006 620408 QNH3020INS BECMG 2715/2716 22008KT 9999 NSW SCT006 BKN010 620408 QNH3019INS BECMG 2717/2718 20006KT 9999 BKN011 QNH3016INS BECMG 2803/2804 15002KT 9999 BKN009 OVC016 QNH3010INS TX10/2722Z TN05/2705Z
KTCM 
35nm N 
270500Z 2705/2811 16012KT 6000 -RA BR SCT004 BKN010 OVC015 620409 QNH3040INS TEMPO 2705/2708 BKN004 BECMG 2707/2708 20012G18KT 4800 -SHRA BR BKN007 OVC012 610409 QNH3039INS BECMG 2712/2713 24007KT 4800 BR OVC012 620409 QNH3025INS BECMG 2717/2718 02006KT 9999 NSW OVC015 620509 QNH3018INS TX08/2722Z TN04/2712Z
KOLM 
36nm NW 
270520Z 2706/2806 19008KT 3SM BR OVC004 FM270800 21010KT 3SM BR OVC004 FM271400 22007KT 1SM BR OVC007 FM272000 03003KT 4SM BR OVC010
NOTAMs
Click for the latest NOTAMs
NOTAMs are issued by the DoD/FAA and will open in a separate window not controlled by AirNav.

 

 
 

Would you like to see your business listed on this page?

 If your business provides an interesting product or service to pilots, flight crews, aircraft, or users of the Strom Field Airport, you should consider listing it here.  To start the listing process, click on the button below
 
Add a business
 

Other Pages about Strom Field Airport

Update a link
 
Copyright © AirNav, LLC. All rights reserved. Privacy Policy  Contact